Raton, NM

5:43 PM MDT on May 22, 2017 (GMT -0600)
Raton Municipal-Crews

Weather History for KRTN - April, 2014

Change the Weather History Date:

Monday, April 28, 2014

  Actual Average (KTAD) Record (KTAD)
Temperature  
Mean Temperature 46 °F -  
Max Temperature 57 °F 69 °F 82 °F (1990)
Min Temperature 33 °F 37 °F 27 °F (1964)
Degree Days  
Heating Degree Days 20    
Moisture  
Dew Point 16 °F    
Average Humidity 35    
Maximum Humidity 76    
Minimum Humidity 14    
Precipitation  
Precipitation 0.00 in - - ()
Sea Level Pressure  
Sea Level Pressure 29.68 in    
Wind  
Wind Speed 11 mph (NW)    
Max Wind Speed 26 mph    
Max Gust Speed 38 mph    
Visibility 10 miles    
Events      
Averages and records for this station are not official NWS values.
T = Trace of Precipitation, MM = Missing Value Source: NWS Daily Summary

Daily Weather History Graph

Daily Weather History Graph

Search for Another Location

Airport or City:

Trip Planner

Search our weather history database for the weather conditions in past years. The results will help you decide how hot, cold, wet, or windy it might be!

Date:

Astronomy

Apr. 28, 2014 Rise Set
Actual Time 6:07 AM MDT 7:43 PM MDT
Civil Twilight 5:39 AM MDT 8:11 PM MDT
Nautical Twilight 5:06 AM MDT 8:44 PM MDT
Astronomical Twilight 4:31 AM MDT 9:20 PM MDT
Moon 5:45 AM MDT (4/28) 7:25 PM MDT (4/28)
Length of Visible Light 14h 31m
Length of Day
13h 36m
Waning Crescent, 0% of the Moon is Illuminated
Apr 28
Waning Crescent
Apr 29
New
May 6
First Quarter
May 14
Full
May 21
Last Quarter

Hourly Weather History & Observations

Time (MDT) Temp. Windchill Dew Point Humidity Pressure Visibility Wind Dir Wind Speed Gust Speed Precip Events Conditions
12:53 AM 37.0 °F 33.3 °F 14.0 °F 39% 29.54 in 10.0 mi North 4.6 mph - N/A   Clear
2:53 AM 34.0 °F 31.0 °F 14.0 °F 44% 29.54 in 10.0 mi NNE 3.5 mph - N/A   Clear
3:53 AM 39.9 °F - 12.0 °F 32% 29.55 in 10.0 mi Calm Calm - N/A   Clear
4:53 AM 36.0 °F 31.1 °F 12.9 °F 39% 29.57 in 10.0 mi SW 5.8 mph - N/A   Clear
5:53 AM 34.0 °F 28.0 °F 12.0 °F 40% 29.61 in 10.0 mi WNW 6.9 mph - N/A   Clear
6:53 AM 37.0 °F 32.4 °F 14.0 °F 39% 29.63 in 10.0 mi NNW 5.8 mph - N/A   Clear
7:53 AM 46.9 °F - 12.9 °F 25% 29.61 in 10.0 mi WNW 9.2 mph - N/A   Clear
8:53 AM 51.1 °F - 12.0 °F 21% 29.60 in 10.0 mi WNW 21.9 mph 29.9 mph N/A   Clear
9:53 AM 52.0 °F - 10.0 °F 19% 29.61 in 10.0 mi NW 21.9 mph 32.2 mph N/A   Clear
10:53 AM 55.9 °F - 9.0 °F 15% 29.60 in 10.0 mi NW 20.7 mph 33.4 mph N/A   Clear
11:53 AM 57.0 °F - 7.0 °F 14% 29.59 in 10.0 mi West 26.5 mph 38.0 mph N/A   Scattered Clouds
12:53 PM 55.0 °F - 12.9 °F 19% 29.61 in 10.0 mi West 16.1 mph 32.2 mph N/A   Scattered Clouds
1:53 PM 57.0 °F - 10.9 °F 16% 29.59 in 10.0 mi NNW 21.9 mph 33.4 mph N/A   Clear
4:53 PM 48.9 °F - 24.1 °F 38% 29.68 in 10.0 mi WNW 17.3 mph - N/A   Overcast
5:53 PM 50.0 °F - 19.0 °F 29% 29.71 in 10.0 mi WNW 15.0 mph 21.9 mph N/A   Partly Cloudy
6:53 PM 48.0 °F - 14.0 °F 26% 29.72 in 7.0 mi West 23.0 mph 28.8 mph N/A   Overcast
7:11 PM 46.9 °F - 15.1 °F 28% 29.82 in 5.0 mi West 20.7 mph 28.8 mph N/A   Haze
7:39 PM 45.0 °F 37.6 °F 24.1 °F 44% 29.84 in 10.0 mi ENE 17.3 mph 28.8 mph N/A   Mostly Cloudy
7:46 PM 44.1 °F 36.5 °F 25.0 °F 47% 29.85 in 10.0 mi ENE 17.3 mph - N/A   Mostly Cloudy
7:53 PM 44.1 °F 37.7 °F 25.0 °F 47% 29.75 in 10.0 mi NE 12.7 mph - N/A   Scattered Clouds
9:53 PM 36.0 °F 25.3 °F 28.9 °F 76% 29.86 in 10.0 mi NE 19.6 mph 24.2 mph N/A   Mostly Cloudy
10:53 PM 36.0 °F 32.1 °F 24.1 °F 62% 29.84 in 10.0 mi NW 4.6 mph - N/A   Partly Cloudy
11:53 PM 33.1 °F 28.7 °F 17.1 °F 52% 29.86 in 10.0 mi NNW 4.6 mph - N/A   Clear